Regional Weather Roundup
Issued by NWS

Home | Current Version | Previous Version | Text Only | Print | Product List | Glossary On
Versions: 1 2 3 4 5 6 7 8 9 10 11 12 13 14 15 16 17 18 19 20 21 22 23 24 25 26 27
000
ASUS45 KSLC 230610
RWRUT

UTAH REGIONAL WEATHER ROUNDUP
NATIONAL WEATHER SERVICE SALT LAKE CITY UT
1200 AM MDT WED APR 23 2014

UTZ001>011-023>025-230700-

NORTHERN UTAH

CITY           SKY/WX    TMP DP  RH WIND       PRES   REMARKS
HILL AFB       MOCLDY    39  36  89 S3        29.86R
LOGAN          LGT RAIN  37  34  89 SE6       29.85S WCI  32
OGDEN          CLOUDY    38  35  89 S5        29.86R WCI  34
PROVO AIRPORT  CLOUDY    43  36  75 NW14      29.87S
SALT LAKE CITY CLOUDY    40  40 100 S8        29.87F WCI  34
VERNAL         MOCLDY    56  27  32 W16G31    29.62R
WENDOVER       MOCLDY    43  27  52 NW15G24   29.90R
HEBER CITY     MIX PCPN  36  34  93 SE8       29.85R WCI  29
WEST JORDAN    CLOUDY    37  37 100 CALM      29.89S

$$

UTZ012>022-026-027-230700-

SOUTHERN UTAH

CITY           SKY/WX    TMP DP  RH WIND       PRES   REMARKS
BRYCE CANYON   PTCLDY    46   9  22 W22G30    29.85F
CEDAR CITY     MOCLDY    43  18  36 NW8       29.88R
MILFORD        CLEAR     46  29  51 N13       29.86R
MOAB/CYNLANDS  CLOUDY    70  18  13 SW20G30   29.60S
PRICE          CLOUDY    49  28  44 NW17G28   29.72R
ST GEORGE      CLOUDY    66  10  11 W10G17    29.76R

$$

REGIONAL REPORTS     COLORADO/ARIZONA

CITY           SKY/WX    TMP DP  RH WIND       PRES   REMARKS
CRAIG, CO      CLOUDY    51  34  52 CALM      29.69S
GRAND JUNCTION CLOUDY    68  25  19 SW15G23   29.62S
RIFLE          CLOUDY    68  20  16 SW25G36   29.67R
MONTROSE       CLOUDY    64  23  21 S13       29.74S
CORTEZ         CLOUDY    59  27  29 S13       29.84S
PAGE, AZ       CLEAR     68  12  11 S9        29.73S
GRAND CANYON   CLEAR     44  16  32 SW8       29.91S
KINGMAN        CLEAR     55  -2   9 S9        29.82S
FLAGSTAFF      CLEAR     52  26  36 SW18G29   29.93S

$$

REGIONAL REPORTS    NEVADA/IDAHO/WYOMING

CITY           SKY/WX    TMP DP  RH WIND       PRES   REMARKS
LAS VEGAS, NV  CLEAR     70  -9   4 NW16G23   29.72R
ELY            PTCLDY    35  20  54 W12       29.95R WCI  27
ELKO           MOCLDY    33  30  88 W7        29.95R WCI  27
POCATELLO, ID  CLOUDY    39  35  86 SW25G33   29.80R WCI  28
BURLEY         MOCLDY    37  34  89 SW21G33   29.83R WCI  26
EVANSTON, WY   CLOUDY    33  31  92 SW10      29.82S WCI  25
ROCK SPRINGS   LGT RAIN  40  35  83 W26G33    29.75R WCI  29

$$



USA.gov is the U.S. government's official web portal to all federal, state and local government web resources and services.